SBI601 UUWW-UWGG

Flight info

Callsign SBI601
Flight time N/A
Altitude 31000
Route KOGOM3C KOGOM L94 USTOK USTOK2P
Aircraft A320/M-SDE3FGHIRWY/LB1

Departure

Time 2026-05-05 17:53
Airport Vnukovo International Airport (UUWW)

Arrival

Time N/A
Airport Nizhny Novgorod / Strigino International Airport (UWGG)
Time Latitude Longitude Altitude Speed Heading
2026-05-05 17:43 55.60039 37.27926 680 ft 0 kts 24°
2026-05-05 17:48 55.60060 37.27942 677 ft 16 kts 23°
2026-05-05 17:48 55.60142 37.27892 680 ft 11 kts 324°
2026-05-05 17:49 55.60209 37.27843 680 ft 10 kts 349°
2026-05-05 17:49 55.60340 37.27860 680 ft 28 kts
2026-05-05 17:49 55.60458 37.27960 679 ft 18 kts 45°
2026-05-05 17:49 55.60542 37.28110 678 ft 16 kts 39°
2026-05-05 17:50 55.60631 37.28042 678 ft 15 kts 315°
2026-05-05 17:50 55.60719 37.27889 671 ft 21 kts 316°
2026-05-05 17:50 55.60850 37.27772 661 ft 21 kts
2026-05-05 17:50 55.61006 37.27886 652 ft 26 kts 20°
2026-05-05 17:51 55.61075 37.27860 651 ft 0 kts 320°
2026-05-05 17:51 55.61076 37.27858 650 ft 2 kts 320°
2026-05-05 17:51 55.61141 37.27721 642 ft 20 kts 277°
2026-05-05 17:51 55.61102 37.27635 642 ft 0 kts 200°
2026-05-05 17:52 55.61034 37.27584 644 ft 39 kts 203°
2026-05-05 17:52 55.60565 37.27222 659 ft 104 kts 204°
2026-05-05 17:53 55.59731 37.26592 680 ft 156 kts 203°
2026-05-05 17:53 55.58707 37.25789 1158 ft 161 kts 204°
2026-05-05 17:53 55.57715 37.24859 1767 ft 162 kts 223°
2026-05-05 17:53 55.56845 37.23525 2200 ft 174 kts 222°
2026-05-05 17:54 55.55855 37.22056 2478 ft 197 kts 221°
2026-05-05 17:54 55.54900 37.20154 2739 ft 219 kts 247°
2026-05-05 17:54 55.54636 37.17481 3364 ft 225 kts 271°
2026-05-05 17:54 55.54679 37.14696 4218 ft 227 kts 270°
2026-05-05 17:55 55.54714 37.11898 5080 ft 228 kts 269°
2026-05-05 17:55 55.54746 37.09134 5941 ft 228 kts 269°
2026-05-05 17:55 55.54796 37.06325 6689 ft 232 kts 274°
2026-05-05 17:55 55.55430 37.03717 6936 ft 239 kts 309°
2026-05-05 17:56 55.56919 37.02251 7000 ft 258 kts 342°
2026-05-05 17:56 55.58735 37.01891 7004 ft 266 kts 354°
2026-05-05 17:56 55.60579 37.01974 7014 ft 269 kts 359°
2026-05-05 17:56 55.62376 37.02967 7003 ft 279 kts 31°
2026-05-05 17:57 55.63717 37.05467 7007 ft 290 kts 61°
2026-05-05 17:57 55.64265 37.08979 7013 ft 302 kts 89°
2026-05-05 17:57 55.64312 37.12722 7004 ft 305 kts 92°
2026-05-05 17:57 55.64314 37.16491 7006 ft 306 kts 92°
2026-05-05 17:58 55.64184 37.20234 6987 ft 303 kts 104°
2026-05-05 17:58 55.63572 37.23819 7440 ft 305 kts 112°
2026-05-05 17:58 55.62889 37.27391 7902 ft 306 kts 112°
2026-05-05 17:58 55.62231 37.30968 7994 ft 305 kts 111°
2026-05-05 17:59 55.61586 37.34538 8004 ft 304 kts 111°
2026-05-05 17:59 55.60946 37.38106 8005 ft 304 kts 111°
2026-05-05 17:59 55.60305 37.41665 8007 ft 304 kts 111°
2026-05-05 17:59 55.59660 37.45225 8006 ft 304 kts 111°
2026-05-05 18:00 55.59005 37.48780 8003 ft 304 kts 111°
2026-05-05 18:00 55.58348 37.52333 7993 ft 304 kts 111°
2026-05-05 18:00 55.57693 37.55880 7991 ft 304 kts 111°
2026-05-05 18:00 55.57310 37.59573 7992 ft 308 kts 93°
2026-05-05 18:01 55.57572 37.63339 8052 ft 313 kts 73°
2026-05-05 18:01 55.58477 37.66864 8737 ft 319 kts 59°
2026-05-05 18:01 55.59580 37.70262 8938 ft 318 kts 59°
2026-05-05 18:01 55.60688 37.73649 8981 ft 317 kts 59°
2026-05-05 18:02 55.61792 37.77017 8982 ft 316 kts 59°
2026-05-05 18:02 55.62897 37.80382 8983 ft 317 kts 59°
2026-05-05 18:02 55.63907 37.83842 8982 ft 317 kts 70°
2026-05-05 18:02 55.64426 37.87619 8982 ft 316 kts 86°
2026-05-05 18:03 55.64357 37.91507 9507 ft 316 kts 103°
2026-05-05 18:03 55.63892 37.95323 10325 ft 318 kts 105°
2026-05-05 18:03 55.63409 37.99159 11092 ft 321 kts 105°
2026-05-05 18:03 55.62924 38.03041 11855 ft 324 kts 105°
2026-05-05 18:04 55.62428 38.06961 12575 ft 329 kts 104°
2026-05-05 18:04 55.62092 38.09589 12759 ft 331 kts 104°
2026-05-05 18:04 55.61582 38.13551 12832 ft 330 kts 104°
2026-05-05 18:04 55.61067 38.17542 12858 ft 341 kts 104°
2026-05-05 18:05 55.60531 38.21733 13346 ft 353 kts 104°
2026-05-05 18:05 55.59990 38.26018 13747 ft 359 kts 103°